This is the latest recevied weather packets stored in our database for station/object F4ELU-13. If no packets are shown the sender has not sent any weather packets the latest 10 day(s).
| Time | Temp. | Humidity | Pressure | Rain* | Wind** | Luminosity | Snow |
|---|---|---|---|---|---|---|---|
| 1778144943 | 15° C | 79% | 1014.2 hPa | 0 mm | - | - | - |
| 1778144403 | 15.56° C | 78% | 1014.3 hPa | 0 mm | - | - | - |
| 1778144043 | 15° C | 78% | 1014.2 hPa | 0 mm | - | - | - |
| 1778143503 | 15.56° C | 79% | 1014.2 hPa | 0 mm | - | - | - |
| 1778142963 | 15° C | 78% | 1014.1 hPa | 0 mm | - | - | - |
| 1778142423 | 15° C | 79% | 1014.2 hPa | 0 mm | - | - | - |
| 1778141883 | 15° C | 78% | 1014 hPa | 0 mm | - | - | - |
| 1778141343 | 14.44° C | 82% | 1014 hPa | 0 mm | - | - | - |
| 1778140803 | 13.33° C | 84% | 1014.2 hPa | 0 mm | - | - | - |
| 1778140443 | 13.33° C | 86% | 1014.1 hPa | 0 mm | - | - | - |
| 1778139903 | 13.89° C | 84% | 1014.1 hPa | 0 mm | - | - | - |
| 1778139363 | 13.33° C | 86% | 1014.1 hPa | 0 mm | - | - | - |
| 1778138823 | 13.33° C | 84% | 1014 hPa | 0 mm | - | - | - |
| 1778138283 | 13.33° C | 87% | 1014 hPa | 0 mm | - | - | - |
| 1778137743 | 13.33° C | 87% | 1014.1 hPa | 0 mm | - | - | - |
| 1778137203 | 12.22° C | 91% | 1013.9 hPa | 0 mm | - | - | - |
| 1778136843 | 12.22° C | 92% | 1013.8 hPa | 0 mm | - | - | - |
| 1778136303 | 11.67° C | 92% | 1014 hPa | 0 mm | - | - | - |
| 1778135763 | 11.67° C | 99% | 1013.8 hPa | 0 mm | - | - | - |
| 1778135223 | 10.56° C | 99% | 1013.7 hPa | 0 mm | - | - | - |
| 1778134683 | 10.56° C | 99% | 1013.9 hPa | 0 mm | - | - | - |
| 1778134143 | 10° C | 99% | 1013.8 hPa | 0 mm | - | - | - |
| 1778133603 | 9.44° C | 99% | 1013.8 hPa | 0 mm | - | - | - |
| 1778133243 | 9.44° C | 99% | 1013.7 hPa | 0 mm | - | - | - |
| 1778132703 | 9.44° C | 99% | 1013.7 hPa | 0 mm | - | - | - |
* Rain latest hour (hover to see other rain measurements)
** Current wind speed in m/s (hover to see current wind gust speed)